Content
SEND FEEDBACK

Daily
Averages
Monthly
Summary
United States of America

EMPORIUM, PENNSYLVANIA


Home > North America > United States > Pennsylvania
Elevation: 728 meters     Latitude: 41 30N     Longitude: 078 14W

WEATHER
 
SELECT A DAY
Number of Records: 255,239;   Date Range: 1/1/95 - 7/28/14
 
SHARE

PRINT THIS DATA

[ ← Previous Day ]
WEATHER ALMANAC - 23 JANUARY, 2013
[ Next Day → ]
[ °F ]   °C
Weather ElementAverageHighLow
Temperature-15.7 °C-13 °C (2:48 pm)-18.3 °C (6:53 am)
Dewpoint-19.8 °C (7:53 pm)-21.7 °C (7:39 am)
Humidity71.8 %80 % (10:53 pm)57 % (2:48 pm)
Barometer1019 hPa1023.4 hPa (8:53 am)1013.9 hPa (11:43 pm)
Wind Speed10 km/h20.4 km/h (1:53 pm)
Wind Gust33.3 km/h (12:20 pm)
Weather ElementAverage
Visibility9.7 km
Wind DirectionSW (222.9 °)

Weather ElementTotal
Precipitation---
Heating Degree Days34 (Base 18.3)
Averaged from 52 records on 23 January, 2013
WEATHER CONDITIONS BREAKOUT
WIND DIRECTION BREAKOUT
WEATHER BY HOUR - 23 JANUARY, 2013
[ °F ]   °C
Local TimeTemperatureDewpointHumidityBarometerVisibilityWind DirectionWind SpeedGust SpeedPrecipitationEventsConditions
12:53 AM-17.2 °C-21.1 °C72 %1021.3 hPa12.9 kmWest (260°)5.6 km/h0 mmOvercast
1:14 AM-17.2 °C-21.1 °C72 %1016.3 hPa11.3 kmWest (260°)5.6 km/hOvercast
1:40 AM-17.8 °C-21.1 °C76 %1016.3 hPa11.3 kmSW (230°)5.6 km/hOvercast
1:53 AM-17.8 °C-21.1 °C76 %1021.7 hPa11.3 kmVariable7.4 km/hOvercast
2:53 AM-17.8 °C-21.1 °C76 %1022 hPa11.3 kmWSW (250°)7.4 km/hOvercast
3:08 AM-17.8 °C-21.1 °C76 %1016.9 hPa11.3 kmWest (260°)5.6 km/hOvercast
3:34 AM-17.8 °C-21.1 °C76 %1016.9 hPa9.7 kmWSW (250°)5.6 km/hHaze
3:53 AM-17.8 °C-21.1 °C76 %1022 hPa11.3 kmWSW (240°)7.4 km/hOvercast
4:45 AM-17.8 °C-21.1 °C76 %1016.9 hPa8 kmWSW (240°)7.4 km/h0 mmSnowLight Snow
4:53 AM-17.8 °C-21.1 °C76 %1022 hPa11.3 kmWSW (240°)7.4 km/h0 mmOvercast
5:00 AM-17.8 °C-21.1 °C76 %1016.9 hPa11.3 kmWSW (240°)7.4 km/hOvercast
5:53 AM-17.8 °C-21.1 °C76 %1022.4 hPa11.3 kmWSW (240°)7.4 km/h0 mmOvercast
6:04 AM-17.8 °C-21.1 °C76 %1017.3 hPa12.9 kmWSW (250°)5.6 km/hOvercast
6:31 AM-17.8 °C-21.1 °C76 %1017.3 hPa14.5 kmWSW (250°)5.6 km/hOvercast
6:53 AM-18.3 °C-21.1 °C79 %1022.7 hPa6.4 kmWSW (240°)7.4 km/h0 mmSnowLight Snow
7:28 AM-18.3 °C-21.1 °C79 %1017.3 hPa16.1 kmVariable5.6 km/h0 mmScattered Clouds
7:39 AM-18.3 °C-21.7 °C75 %1017.3 hPa11.3 kmSW (220°)7.4 km/h0 mmMostly Cloudy
7:53 AM-18.3 °C-21.1 °C79 %1022.7 hPa12.9 kmSW (220°)7.4 km/h0 mmMostly Cloudy
8:39 AM-17.8 °C-20.6 °C79 %1017.9 hPa4.8 kmWSW (240°)9.3 km/h0 mmHaze
8:53 AM-17.2 °C-20.6 °C75 %1023.4 hPa6.4 kmWSW (250°)9.3 km/h0 mmHaze
9:01 AM-17.2 °C-20 °C79 %1017.9 hPa6.4 kmVariable7.4 km/hHaze
9:13 AM-16.7 °C-20 °C76 %1018.3 hPa9.7 kmVariable7.4 km/hHaze
9:53 AM-16.1 °C-19.4 °C76 %1023.4 hPa11.3 kmWest (260°)11.1 km/hOvercast
10:07 AM-16.1 °C-19.4 °C76 %1018.3 hPa9.7 kmSW (230°)13 km/hHaze
10:16 AM-15.6 °C-19.4 °C73 %1018.3 hPa12.9 kmWSW (250°)14.8 km/hOvercast
10:34 AM-15 °C-18.9 °C73 %1018.3 hPa12.9 kmWSW (240°)11.1 km/h0 mmOvercast
10:53 AM-15 °C-19.4 °C70 %1023 hPa16.1 kmVariable11.1 km/h0 mmOvercast
11:53 AM-13.9 °C-20 °C61 %1022 hPa16.1 kmWSW (250°)16.7 km/h0 mmOvercast
12:07 PM-13.9 °C-20 °C61 %1017.3 hPa14.5 kmWNW (290°)16.7 km/hOvercast
12:20 PM-13.9 °C-20 °C61 %1016.9 hPa4 kmWest (280°)16.7 km/h33.3 km/h0 mmSnowLight Snow
12:23 PM-13.9 °C-18.9 °C67 %1016.9 hPa2.4 kmWest (280°)14.8 km/h33.3 km/h0 mmSnowLight Snow
12:33 PM-13.9 °C-18.3 °C70 %1016.9 hPa0.8 kmWNW (290°)14.8 km/h0 mmSnowSnow
12:53 PM-13.9 °C-18.3 °C70 %1021.7 hPa0.8 kmWest (280°)14.8 km/h27.8 km/h0 mmSnowSnow
1:14 PM-13.9 °C-19.4 °C64 %1016.3 hPa1.6 kmNW (310°)14.8 km/h29.6 km/h0 mmSnowLight Snow
1:20 PM-13.3 °C-18.9 °C64 %1016.3 hPa4.8 kmWest (280°)13 km/h0 mmSnowLight Snow
1:34 PM-13.9 °C-19.4 °C64 %1016.3 hPa2.4 kmWest (260°)16.7 km/h27.8 km/h0 mmSnowLight Snow
1:53 PM-13.3 °C-19.4 °C61 %1021 hPa2.9 kmWest (280°)20.4 km/h0 mmSnowLight Snow
1:57 PM-13.3 °C-20 °C58 %1016.3 hPa4.8 kmWest (280°)18.5 km/h0 mmSnowLight Snow
2:48 PM-13 °C-20 °C57 %1015.9 hPa8 kmWNW (300°)16.7 km/h31.5 km/h0 mmHaze
2:53 PM-13.3 °C-18.9 °C64 %1021 hPa6.4 kmWest (280°)11.1 km/h31.5 km/h0 mmSnowLight Snow
4:02 PM-13.3 °C-18.3 °C67 %1015.9 hPa1.6 kmWest (270°)11.1 km/h0 mmSnowLight Snow
4:16 PM-13.3 °C-18.3 °C67 %1015.9 hPa4.8 kmWest (280°)11.1 km/h0 mmSnowLight Snow
4:53 PM-13.3 °C-18.9 °C64 %1020.7 hPa12.9 kmWest (270°)13 km/h0 mmOvercast
5:00 PM-13.3 °C-19.4 °C61 %1015.9 hPa16.1 kmWSW (250°)11.1 km/hOvercast
5:53 PM-13.3 °C-18.3 °C67 %1020.7 hPa6.4 kmWSW (250°)9.3 km/h0 mmSnowLight Snow
6:53 PM-13.9 °C-18.3 °C70 %1020.3 hPa16.1 kmSW (220°)5.6 km/h0 mmOvercast
7:53 PM-14.4 °C-17.8 °C76 %1020 hPa14.5 kmCalmOvercast
8:53 PM-15 °C-18.3 °C76 %1020 hPa9.7 kmSSW (210°)7.4 km/hHaze
9:53 PM-15.6 °C-18.9 °C76 %1019.3 hPa9.7 kmSSW (210°)9.3 km/hHaze
10:53 PM-16.1 °C-18.9 °C80 %1019 hPa16.1 kmSW (220°)7.4 km/hClear
11:43 PM-16.1 °C-18.9 °C80 %1013.9 hPa14.5 kmSouth (190°)5.6 km/hMostly Cloudy
11:53 PM-16.1 °C-18.9 °C80 %1018.6 hPa14.5 kmSSW (200°)5.6 km/hScattered Clouds
Hourly data recorded from KBFD, located 0 kilometers away from Emporium, Pennsylvania







STORIES FROM OUR PARTNERS